Change the Weather History Date:

Tuesday, July 22, 2014

  Actual Average (KBRL) Record (KBRL)
Temperature  
Mean Temperature 74 °F 77 °F  
Max Temperature 81 °F 87 °F 107 °F (1934)
Min Temperature 68 °F 67 °F 47 °F (1947)
Degree Days  
Heating Degree Days 0 0  
Month to date heating degree days 0  
Since 1 June heating degree days 13  
Since 1 July heating degree days 0  
Cooling Degree Days 10 12  
Month to date cooling degree days 264  
Year to date cooling degree days 627  
Since 1 June cooling degree days 524  
Growing Degree Days 24 (Base 50)    
Moisture  
Dew Point 72 °F    
Average Humidity 91    
Maximum Humidity 100    
Minimum Humidity 82    
Precipitation  
Precipitation 0.00 in 0.13 in 1.76 in (1957)
Month to date precipitation 3.08  
Year to date precipitation 21.81  
Sea Level Pressure  
Sea Level Pressure 30.03 in    
Wind  
Wind Speed 7 mph (South)    
Max Wind Speed 23 mph    
Max Gust Speed 30 mph    
Visibility 7 miles    
Events Rain , Thunderstorm    
T = Trace of Precipitation, MM = Missing Value Source: NWS Daily Summary

Daily Weather History Graph

Daily Weather History Graph

Search for Another Location

Airport or City:

Trip Planner

Search our weather history database for the weather conditions in past years. The results will help you decide how hot, cold, wet, or windy it might be!

Date:

Astronomy

Jul. 22, 2014 Rise Set
Actual Time 5:50 AM CDT 8:26 PM CDT
Civil Twilight 5:19 AM CDT 8:58 PM CDT
Nautical Twilight 4:39 AM CDT 9:37 PM CDT
Astronomical Twilight 3:55 AM CDT 10:21 PM CDT
Moon 2:24 AM CDT (7/22) 5:04 PM CDT (7/22)
Length of Visible Light 15h 39m
Length of Day
14h 36m
Waning Crescent, 16% of the Moon is Illuminated
Jul 22
Waning Crescent
Jul 26
New
Aug 3
First Quarter
Aug 10
Full
Aug 17
Last Quarter

Hourly Weather History & Observations

Time (CDT) Temp. Heat Index Dew Point Humidity Pressure Visibility Wind Dir Wind Speed Gust Speed Precip Events Conditions
12:15 AM 70.9 °F - 68.9 °F 93% 30.07 in 7.0 mi SSE 5.8 mph - N/A   Clear
12:35 AM 70.9 °F - 68.9 °F 93% 30.07 in 7.0 mi SSE 5.8 mph - N/A   Clear
12:55 AM 70.2 °F - 68.4 °F 94% 30.07 in 7.0 mi SSE 5.8 mph - N/A   Clear
1:15 AM 69.8 °F - 68.0 °F 94% 30.07 in 5.0 mi SSE 5.8 mph - N/A   Clear
1:35 AM 69.8 °F - 67.8 °F 93% 30.07 in 7.0 mi South 5.8 mph - N/A   Clear
1:55 AM 70.0 °F - 67.3 °F 91% 30.06 in 7.0 mi South 8.1 mph - N/A   Clear
2:15 AM 70.2 °F - 67.3 °F 91% 30.06 in 7.0 mi South 6.9 mph - N/A   Clear
2:35 AM 69.6 °F - 67.1 °F 92% 30.06 in 7.0 mi South 6.9 mph - N/A   Clear
2:55 AM 69.8 °F - 67.1 °F 91% 30.05 in 7.0 mi South 8.1 mph - N/A   Clear
3:15 AM 69.6 °F - 66.9 °F 91% 30.05 in 7.0 mi South 8.1 mph - N/A   Clear
3:35 AM 69.3 °F - 66.7 °F 92% 30.06 in 7.0 mi South 5.8 mph - N/A   Clear
3:55 AM 69.1 °F - 66.6 °F 92% 30.06 in 7.0 mi South 6.9 mph - N/A   Clear
4:15 AM 68.4 °F - 66.4 °F 93% 30.06 in 5.0 mi South 6.9 mph - N/A   Clear
4:35 AM 68.2 °F - 66.6 °F 95% 30.05 in 5.0 mi South 5.8 mph - N/A   Clear
4:55 AM 68.9 °F - 66.7 °F 93% 30.05 in 7.0 mi South 6.9 mph - N/A   Clear
5:15 AM 68.5 °F - 66.6 °F 93% 30.05 in 7.0 mi South 6.9 mph - N/A   Clear
6:35 AM 69.1 °F - 67.5 °F 95% 30.06 in 4.0 mi South 5.8 mph - N/A   Scattered Clouds
6:55 AM 70.2 °F - 67.6 °F 92% 30.06 in 7.0 mi SSW 8.1 mph - N/A   Clear
7:15 AM 71.1 °F - 68.0 °F 90% 30.05 in 7.0 mi South 6.9 mph - N/A   Clear
7:35 AM 72.0 °F - 68.2 °F 88% 30.05 in 7.0 mi SSW 9.2 mph - N/A   Clear
7:55 AM 73.0 °F - 68.2 °F 85% 30.03 in 7.0 mi SSW 11.5 mph 18.4 mph N/A   Clear
8:15 AM 74.8 °F - 69.1 °F 82% 30.05 in 10.0 mi SSW 8.1 mph - N/A   Clear
8:35 AM 74.5 °F - 68.5 °F 82% 30.05 in 10.0 mi SSW 9.2 mph - N/A   Clear
8:55 AM 73.6 °F - 68.4 °F 84% 30.06 in 10.0 mi SSW 6.9 mph - N/A   Scattered Clouds
9:15 AM 73.2 °F - 68.9 °F 86% 30.12 in 7.0 mi NNW 11.5 mph - N/A   Mostly Cloudy
9:35 AM 71.8 °F - 69.4 °F 92% 30.09 in 1.0 mi SSW 9.2 mph - N/A Rain , Thunderstorm Heavy Thunderstorms and Rain
9:55 AM 70.7 °F - 69.3 °F 95% 30.03 in 4.0 mi SW 10.4 mph - N/A Rain , Thunderstorm Thunderstorms and Rain
10:15 AM 69.8 °F - 69.8 °F 100% 30.00 in 5.0 mi SW 23.0 mph 29.9 mph N/A Rain , Thunderstorm Light Thunderstorms and Rain
10:35 AM 70.0 °F - 70.0 °F 100% 29.99 in 7.0 mi SW 13.8 mph 25.3 mph N/A Thunderstorm Mostly Cloudy
10:55 AM 70.7 °F - 70.7 °F 100% 29.99 in 7.0 mi WSW 19.6 mph 25.3 mph N/A Rain , Thunderstorm Light Thunderstorms and Rain
11:15 AM 71.8 °F - 71.8 °F 100% 29.97 in 10.0 mi SW 19.6 mph 27.6 mph N/A Rain Light Rain
11:35 AM 72.5 °F - 72.5 °F 100% 29.97 in 10.0 mi East 8.1 mph - N/A Rain Light Rain
11:55 AM 75.2 °F - 73.4 °F 94% 30.04 in 10.0 mi North 17.3 mph 21.9 mph N/A   Clear
12:15 PM 75.2 °F - 72.5 °F 91% 30.00 in 7.0 mi SE 3.5 mph 10.4 mph N/A   Scattered Clouds
12:35 PM 74.7 °F - 72.0 °F 91% 30.02 in 7.0 mi North 4.6 mph 16.1 mph N/A   Scattered Clouds
12:55 PM 74.3 °F - 71.8 °F 92% 30.03 in 7.0 mi ESE 8.1 mph - N/A   Mostly Cloudy
1:15 PM 74.7 °F - 71.8 °F 91% 30.02 in 7.0 mi SSE 5.8 mph - N/A   Mostly Cloudy
1:35 PM 75.6 °F - 72.3 °F 90% 30.03 in 7.0 mi SE 8.1 mph - N/A   Mostly Cloudy
1:55 PM 76.8 °F - 72.7 °F 87% 30.02 in 7.0 mi SE 6.9 mph - N/A   Mostly Cloudy
2:15 PM 78.1 °F - 73.4 °F 85% 30.01 in 10.0 mi SE 8.1 mph - N/A   Scattered Clouds
2:35 PM 79.0 °F - 73.8 °F 84% 30.01 in 10.0 mi SSE 8.1 mph - N/A   Clear
2:55 PM 79.7 °F - 74.1 °F 83% 30.01 in 7.0 mi SSE 8.1 mph - N/A   Clear
3:15 PM 79.2 °F - 74.3 °F 85% 30.00 in 10.0 mi SSE 8.1 mph - N/A   Scattered Clouds
3:35 PM 80.2 °F 85.2 °F 74.7 °F 83% 30.01 in 7.0 mi SSE 8.1 mph - N/A   Scattered Clouds
3:55 PM 80.6 °F 85.9 °F 74.7 °F 82% 30.04 in 10.0 mi Calm Calm - N/A   Overcast
4:15 PM 81.0 °F 86.7 °F 74.8 °F 82% 30.04 in 7.0 mi Calm Calm - N/A   Overcast
4:35 PM 80.6 °F 86.6 °F 76.1 °F 86% 30.03 in 7.0 mi SSE 8.1 mph - N/A   Overcast
4:55 PM 81.1 °F 87.8 °F 76.1 °F 85% 30.03 in 7.0 mi SSE 9.2 mph - N/A   Scattered Clouds
5:15 PM 80.6 °F 86.2 °F 75.4 °F 84% 30.02 in 7.0 mi South 10.4 mph - N/A   Clear
5:35 PM 79.7 °F - 75.6 °F 87% 30.01 in 7.0 mi South 9.2 mph - N/A   Clear
5:55 PM 80.2 °F 85.8 °F 76.1 °F 87% 30.01 in 7.0 mi South 8.1 mph - N/A   Clear
6:15 PM 80.6 °F 86.6 °F 76.1 °F 86% 30.01 in 7.0 mi SSW 8.1 mph - N/A   Clear
6:35 PM 80.6 °F 86.6 °F 76.1 °F 86% 30.02 in 7.0 mi SSW 5.8 mph - N/A   Scattered Clouds
6:55 PM 80.6 °F 86.6 °F 76.1 °F 86% 30.02 in 7.0 mi SW 5.8 mph - N/A   Mostly Cloudy
7:15 PM 80.6 °F 86.8 °F 76.5 °F 87% 30.02 in 5.0 mi SSW 5.8 mph - N/A   Haze
7:35 PM 80.1 °F 85.5 °F 76.1 °F 88% 30.02 in 5.0 mi SW 5.8 mph - N/A   Scattered Clouds
7:55 PM 79.7 °F - 76.1 °F 89% 30.02 in 5.0 mi SSW 4.6 mph - N/A   Mostly Cloudy
8:15 PM 79.5 °F - 75.9 °F 89% 30.02 in 5.0 mi SSW 5.8 mph - N/A   Overcast
8:35 PM 78.8 °F - 75.9 °F 91% 30.03 in 5.0 mi SSW 4.6 mph - N/A   Overcast
8:55 PM 78.4 °F - 75.9 °F 92% 30.03 in 7.0 mi SSW 4.6 mph - N/A   Overcast
9:15 PM 78.4 °F - 75.7 °F 91% 30.03 in 7.0 mi SW 4.6 mph - N/A   Overcast
9:35 PM 78.3 °F - 75.9 °F 92% 30.04 in 7.0 mi SW 4.6 mph - N/A   Overcast
9:55 PM 77.5 °F - 75.4 °F 93% 30.04 in 7.0 mi WNW 5.8 mph - N/A   Mostly Cloudy
10:15 PM 77.2 °F - 75.6 °F 95% 30.03 in 5.0 mi SW 4.6 mph - N/A   Mostly Cloudy
10:35 PM 76.5 °F - 75.4 °F 96% 30.03 in 3.0 mi WSW 4.6 mph - N/A Rain Rain
10:55 PM 76.3 °F - 75.4 °F 97% 30.03 in 4.0 mi Calm Calm - N/A   Mostly Cloudy
11:15 PM 76.1 °F - 75.4 °F 98% 30.03 in 4.0 mi Calm Calm - N/A   Mostly Cloudy
11:35 PM 75.2 °F - 74.7 °F 98% 30.03 in 3.0 mi West 4.6 mph - N/A   Scattered Clouds
11:55 PM 75.4 °F - 75.2 °F 99% 30.04 in 3.0 mi NW 5.8 mph - N/A   Mostly Cloudy